695  
NZUS01 KABQ 250410  
RWRABQ  
NEW MEXICO REGIONAL WEATHER ROUNDUP  
NATIONAL WEATHER SERVICE ALBUQUERQUE NM  
1000 PM MDT THU SEP 24 2020  
 
-----NORTHERN NEW MEXICO AND NEARBY AREAS-----  
 
 
CITY SKY/WX TMP DP RH WIND PRES REMARKS
 
ALBUQUERQUE FAIR 73 28 18 CALM 30.10R  
BELEN FAIR 69 26 20 S7 30.09S  
SOCORRO FAIR 73 29 19 SW9 30.07S  
 
CITY SKY/WX TMP DP RH WIND PRES REMARKS
 
SANTA FE CLEAR 62 25 24 E6 30.17R  
LOS ALAMOS CLEAR 69 18 14 W7 30.24R  
TAOS CLEAR 56 24 29 E9 30.24R  
ANGEL FIRE FAIR 47 27 46 SW3 30.33R  
FARMINGTON CLEAR 62 21 20 CALM 30.10R  
GRANTS CLEAR 59 21 23 NW6 30.22R  
GALLUP CLEAR 60 18 19 CALM 30.20R  
FLAGSTAFF CLEAR 60 29 30 CALM 30.26R  
DURANGO CLEAR 60 30 32 N9 30.19R  
 
CITY SKY/WX TMP DP RH WIND PRES REMARKS
 
ALAMOSA CLEAR 52 31 44 SW6 30.22R  
DENVER CLEAR 66 30 26 S9 29.98S  
CLAYTON CLEAR 68 33 27 SW9 30.03R  
RATON CLEAR 63 33 32 CALM 30.12S  
LAS VEGAS CLEAR 65 27 23 SW6 30.19R  
CLINES CORNERS CLEAR 58 24 27 SW13 30.23S  
SANTA ROSA FAIR 71 38 30 S3 30.05S  
TUCUMCARI CLEAR 71 39 31 SW7 29.97R  
CLOVIS (AFB) NOT AVBL  
CLOVIS CLEAR 68 39 34 S10 30.04S  
AMARILLO CLEAR 70 38 31 S10 29.97S  
 
-----SOUTHERN NEW MEXICO AND NEARBY AREAS-----  
 
 
CITY SKY/WX TMP DP RH WIND PRES REMARKS
 
T OR C CLEAR 77 31 18 SW6 30.07R  
DEMING CLEAR 69 34 27 CALM 30.05R  
TUCSON CLEAR 89 36 15 NW7 29.92R  
EL PASO CLEAR 81 36 19 CALM 30.00R  
LAS CRUCES CLEAR 71 29 20 CALM 30.06R  
 
CITY SKY/WX TMP DP RH WIND PRES REMARKS
 
ALAMOGORDO CLEAR 75 39 27 E6 30.02R  
RUIDOSO CLEAR 64 36 34 CALM 30.27S  
ROSWELL CLEAR 77 39 25 SW10 30.00S  
CARLSBAD CLEAR 74 44 34 S9 29.99S  
HOBBS CLEAR 73 37 27 SE12 30.04S  
 
CLICK HERE TO GO TO PREVIOUS BULLETINS.

The Nexlab NM Page Main Text Page